AEE358 LGAV-LGSR

Flight info

Callsign AEE358
Flight time 0h 32m
Altitude 21000
Route KEA L607 NETIS M601 PEXAN
Aircraft A320/M-SDE3FGHIRWY/LB1

Departure

Time 2026-04-20 15:42
Airport Athens Eleftherios Venizelos International Airport (LGAV)

Arrival

Time 2026-04-20 16:15
Airport Santorini International Airport (LGSR)
Time Latitude Longitude Altitude Speed Heading
2026-04-20 15:14 37.94073 23.95206 302 ft 0 kts 39°
2026-04-20 15:32 37.94070 23.95204 301 ft 3 kts 39°
2026-04-20 15:32 37.94050 23.95182 301 ft 4 kts 43°
2026-04-20 15:33 37.94032 23.95157 301 ft 4 kts 58°
2026-04-20 15:33 37.94024 23.95129 301 ft 4 kts 108°
2026-04-20 15:33 37.94026 23.95121 301 ft 0 kts 126°
2026-04-20 15:35 37.94012 23.95144 304 ft 9 kts 126°
2026-04-20 15:35 37.93953 23.95247 300 ft 18 kts 128°
2026-04-20 15:35 37.93892 23.95349 303 ft 13 kts 126°
2026-04-20 15:36 37.93852 23.95447 297 ft 13 kts 92°
2026-04-20 15:36 37.93908 23.95525 299 ft 12 kts 37°
2026-04-20 15:36 37.93973 23.95586 298 ft 11 kts 37°
2026-04-20 15:36 37.94039 23.95649 296 ft 14 kts 37°
2026-04-20 15:37 37.94121 23.95728 298 ft 14 kts 37°
2026-04-20 15:37 37.94196 23.95800 300 ft 13 kts 37°
2026-04-20 15:37 37.94264 23.95866 297 ft 12 kts 37°
2026-04-20 15:37 37.94325 23.95926 300 ft 10 kts 37°
2026-04-20 15:38 37.94385 23.95979 299 ft 12 kts 35°
2026-04-20 15:38 37.94459 23.96048 299 ft 14 kts 36°
2026-04-20 15:38 37.94542 23.96127 300 ft 16 kts 37°
2026-04-20 15:38 37.94637 23.96217 301 ft 19 kts 37°
2026-04-20 15:39 37.94751 23.96327 303 ft 23 kts 37°
2026-04-20 15:39 37.94888 23.96455 303 ft 26 kts 36°
2026-04-20 15:39 37.95046 23.96603 304 ft 25 kts 36°
2026-04-20 15:39 37.95123 23.96676 302 ft 12 kts 37°
2026-04-20 15:40 37.95187 23.96737 303 ft 11 kts 37°
2026-04-20 15:40 37.95243 23.96791 304 ft 9 kts 37°
2026-04-20 15:40 37.95290 23.96840 304 ft 9 kts 50°
2026-04-20 15:40 37.95285 23.96922 305 ft 9 kts 126°
2026-04-20 15:41 37.95250 23.96980 308 ft 10 kts 127°
2026-04-20 15:41 37.95184 23.97014 310 ft 14 kts 205°
2026-04-20 15:41 37.94953 23.96795 307 ft 77 kts 217°
2026-04-20 15:41 37.94345 23.96220 291 ft 137 kts 217°
2026-04-20 15:42 37.93488 23.95420 637 ft 156 kts 213°
2026-04-20 15:42 37.92551 23.94716 1286 ft 157 kts 208°
2026-04-20 15:42 37.91591 23.94060 2072 ft 157 kts 210°
2026-04-20 15:42 37.90580 23.93370 2524 ft 176 kts 210°
2026-04-20 15:43 37.89438 23.92589 2869 ft 197 kts 211°
2026-04-20 15:43 37.88161 23.91711 3178 ft 221 kts 212°
2026-04-20 15:43 37.86742 23.90735 3709 ft 240 kts 211°
2026-04-20 15:43 37.85123 23.89986 4250 ft 264 kts 188°
2026-04-20 15:44 37.83273 23.90335 5057 ft 280 kts 157°
2026-04-20 15:44 37.81641 23.91726 5997 ft 286 kts 144°
2026-04-20 15:44 37.80067 23.93286 6971 ft 290 kts 143°
2026-04-20 15:44 37.78484 23.94886 7909 ft 293 kts 143°
2026-04-20 15:45 37.76881 23.96508 8831 ft 296 kts 143°
2026-04-20 15:45 37.75256 23.98143 9744 ft 300 kts 143°
2026-04-20 15:45 37.73593 23.99805 10390 ft 314 kts 143°
2026-04-20 15:45 37.71814 24.01574 10695 ft 338 kts 143°
2026-04-20 15:46 37.69901 24.03468 10958 ft 361 kts 143°
2026-04-20 15:46 37.67894 24.05452 11509 ft 371 kts 143°
2026-04-20 15:46 37.66541 24.06791 11960 ft 375 kts 143°
2026-04-20 15:46 37.64471 24.08836 12697 ft 380 kts 143°
2026-04-20 15:47 37.62375 24.10906 13422 ft 385 kts 143°
2026-04-20 15:47 37.60252 24.13001 14104 ft 390 kts 143°
2026-04-20 15:47 37.57402 24.15813 14954 ft 396 kts 143°
2026-04-20 15:47 37.55931 24.17265 15384 ft 399 kts 143°
2026-04-20 15:48 37.53737 24.19431 16016 ft 403 kts 143°
2026-04-20 15:48 37.51520 24.21618 16643 ft 407 kts 143°
2026-04-20 15:48 37.49277 24.23826 17256 ft 411 kts 143°
2026-04-20 15:48 37.47015 24.26050 17858 ft 415 kts 143°
2026-04-20 15:49 37.44727 24.28296 18425 ft 419 kts 143°
2026-04-20 15:49 37.42416 24.30567 18919 ft 423 kts 143°
2026-04-20 15:49 37.40081 24.32860 19419 ft 427 kts 143°
2026-04-20 15:49 37.37756 24.35139 19932 ft 431 kts 143°
2026-04-20 15:50 37.35351 24.37495 20438 ft 435 kts 143°
2026-04-20 15:50 37.32954 24.39839 20865 ft 438 kts 143°
2026-04-20 15:50 37.30579 24.42161 20985 ft 443 kts 143°
2026-04-20 15:50 37.28100 24.44577 20999 ft 457 kts 143°
2026-04-20 15:51 37.25567 24.47040 20993 ft 463 kts 143°
2026-04-20 15:51 37.23019 24.49519 20993 ft 464 kts 143°
2026-04-20 15:51 37.20434 24.52037 20998 ft 465 kts 143°
2026-04-20 15:51 37.17909 24.54498 20996 ft 465 kts 143°
2026-04-20 15:52 37.15357 24.56989 20990 ft 465 kts 143°
2026-04-20 15:52 37.12806 24.59474 21000 ft 465 kts 143°
2026-04-20 15:52 37.10244 24.61956 21005 ft 465 kts 143°
2026-04-20 15:53 37.05118 24.66915 21005 ft 465 kts 143°
2026-04-20 15:53 37.02559 24.69391 21003 ft 465 kts 143°
2026-04-20 15:53 37.00021 24.71848 20995 ft 452 kts 143°
2026-04-20 15:53 36.97557 24.74231 20321 ft 447 kts 143°
2026-04-20 15:54 36.95065 24.76635 19174 ft 457 kts 143°
2026-04-20 15:54 36.92543 24.79058 18477 ft 454 kts 145°
2026-04-20 15:54 36.89912 24.81193 17889 ft 446 kts 149°
2026-04-20 15:54 36.87295 24.83222 17314 ft 439 kts 149°
2026-04-20 15:55 36.84725 24.85212 16789 ft 431 kts 149°
2026-04-20 15:55 36.82194 24.87171 16244 ft 425 kts 149°
2026-04-20 15:55 36.79694 24.89102 15700 ft 420 kts 149°
2026-04-20 15:55 36.77214 24.91016 14860 ft 421 kts 149°
2026-04-20 15:56 36.74719 24.93016 13846 ft 430 kts 143°
2026-04-20 15:56 36.72541 24.95563 13058 ft 428 kts 130°
2026-04-20 15:56 36.70890 24.98605 12366 ft 422 kts 117°
2026-04-20 15:56 36.69822 25.01978 11676 ft 415 kts 104°
2026-04-20 15:57 36.69327 25.05486 10988 ft 409 kts 96°
2026-04-20 15:57 36.68922 25.08982 10274 ft 406 kts 99°
2026-04-20 15:57 36.68378 25.12421 9205 ft 401 kts 101°
2026-04-20 15:57 36.67804 25.15731 8144 ft 389 kts 102°
2026-04-20 15:58 36.67213 25.18958 7101 ft 376 kts 102°
2026-04-20 15:58 36.66628 25.22116 6052 ft 363 kts 102°
2026-04-20 15:58 36.66072 25.25136 4998 ft 353 kts 102°
2026-04-20 15:58 36.65543 25.28047 3948 ft 345 kts 102°
2026-04-20 15:59 36.65031 25.30896 3333 ft 326 kts 102°
2026-04-20 15:59 36.64527 25.33520 3131 ft 296 kts 109°
2026-04-20 15:59 36.63606 25.35667 3010 ft 268 kts 129°
2026-04-20 15:59 36.62323 25.37145 3013 ft 238 kts 148°
2026-04-20 16:00 36.60889 25.38033 3020 ft 227 kts 161°
2026-04-20 16:00 36.59411 25.38735 3025 ft 227 kts 161°
2026-04-20 16:00 36.57935 25.39427 3025 ft 226 kts 162°
2026-04-20 16:00 36.56464 25.40117 3028 ft 226 kts 161°
2026-04-20 16:01 36.54991 25.40817 2950 ft 227 kts 161°
2026-04-20 16:01 36.53521 25.41509 2732 ft 226 kts 161°
2026-04-20 16:01 36.51873 25.42278 2411 ft 289 kts 162°
2026-04-20 16:01 36.49950 25.43174 2000 ft 293 kts 161°
2026-04-20 16:02 36.48076 25.44066 1617 ft 281 kts 161°
2026-04-20 16:02 36.46313 25.44907 1263 ft 262 kts 161°
2026-04-20 16:02 36.44665 25.45682 929 ft 243 kts 161°
2026-04-20 16:02 36.43189 25.46376 638 ft 217 kts 162°
2026-04-20 16:03 36.41850 25.47014 353 ft 196 kts 161°
2026-04-20 16:03 36.40654 25.47577 123 ft 175 kts 163°
2026-04-20 16:03 36.39497 25.48111 511 ft 185 kts 162°
2026-04-20 16:03 36.38301 25.48661 1176 ft 183 kts 163°
2026-04-20 16:04 36.37112 25.49238 1756 ft 186 kts 159°
2026-04-20 16:04 36.36094 25.50365 1929 ft 213 kts 120°
2026-04-20 16:04 36.35872 25.52215 2195 ft 226 kts 74°
2026-04-20 16:04 36.36491 25.54009 2650 ft 227 kts 62°
2026-04-20 16:05 36.37206 25.55766 2963 ft 229 kts 60°
2026-04-20 16:05 36.37929 25.57529 3011 ft 228 kts 60°
2026-04-20 16:05 36.38899 25.59051 3015 ft 224 kts 34°
2026-04-20 16:05 36.40279 25.59859 2876 ft 218 kts
2026-04-20 16:06 36.41755 25.59796 2622 ft 211 kts 340°
2026-04-20 16:06 36.43151 25.59251 2385 ft 211 kts 341°
2026-04-20 16:06 36.44574 25.58789 2127 ft 211 kts 342°
2026-04-20 16:06 36.45998 25.58339 2023 ft 211 kts 343°
2026-04-20 16:07 36.47409 25.57874 2003 ft 210 kts 342°
2026-04-20 16:07 36.48823 25.57403 2013 ft 211 kts 342°
2026-04-20 16:07 36.50242 25.56934 2016 ft 211 kts 342°
2026-04-20 16:07 36.51639 25.56468 2011 ft 211 kts 342°
2026-04-20 16:08 36.53053 25.55994 2019 ft 211 kts 342°
2026-04-20 16:08 36.54470 25.55521 2012 ft 211 kts 342°
2026-04-20 16:08 36.55767 25.54733 2015 ft 206 kts 316°
2026-04-20 16:08 36.56558 25.53373 2013 ft 184 kts 289°
2026-04-20 16:09 36.56745 25.51900 2019 ft 163 kts 266°
2026-04-20 16:09 36.56544 25.50595 2041 ft 147 kts 258°
2026-04-20 16:09 36.56324 25.49376 2021 ft 142 kts 258°
2026-04-20 16:09 36.56109 25.48179 2012 ft 141 kts 259°
2026-04-20 16:10 36.55897 25.46997 2024 ft 140 kts 258°
2026-04-20 16:10 36.55686 25.45815 2008 ft 140 kts 259°
2026-04-20 16:10 36.55475 25.44628 2018 ft 140 kts 259°
2026-04-20 16:10 36.55134 25.43503 2012 ft 141 kts 240°
2026-04-20 16:11 36.54467 25.42599 2011 ft 145 kts 219°
2026-04-20 16:11 36.53542 25.42071 2015 ft 154 kts 196°
2026-04-20 16:11 36.52470 25.42045 2006 ft 156 kts 172°
2026-04-20 16:11 36.51447 25.42489 2007 ft 158 kts 162°
2026-04-20 16:12 36.50419 25.42982 2014 ft 158 kts 163°
2026-04-20 16:12 36.49387 25.43467 1875 ft 159 kts 163°
2026-04-20 16:12 36.48358 25.43949 1629 ft 157 kts 162°
2026-04-20 16:12 36.47340 25.44429 1383 ft 156 kts 162°
2026-04-20 16:13 36.46328 25.44910 1176 ft 155 kts 162°
2026-04-20 16:13 36.45323 25.45390 1038 ft 155 kts 162°
2026-04-20 16:13 36.44322 25.45869 829 ft 153 kts 162°
2026-04-20 16:13 36.43325 25.46328 615 ft 152 kts 163°
2026-04-20 16:14 36.42345 25.46796 451 ft 151 kts 162°
2026-04-20 16:14 36.41366 25.47238 243 ft 149 kts 163°
2026-04-20 16:14 36.40401 25.47693 92 ft 146 kts 164°
2026-04-20 16:14 36.39611 25.48062 69 ft 82 kts 159°
2026-04-20 16:15 36.39314 25.48202 62 ft 31 kts 160°
2026-04-20 16:15 36.39126 25.48291 58 ft 13 kts 158°
2026-04-20 16:15 36.39035 25.48296 58 ft 15 kts 222°
2026-04-20 16:15 36.39026 25.48172 52 ft 16 kts 322°
2026-04-20 16:16 36.39127 25.48119 57 ft 15 kts 339°
2026-04-20 16:16 36.39214 25.48080 60 ft 12 kts 340°
2026-04-20 16:16 36.39276 25.48052 61 ft 8 kts 339°
2026-04-20 16:16 36.39318 25.48032 62 ft 8 kts 339°
2026-04-20 16:17 36.39395 25.47995 70 ft 20 kts 339°
2026-04-20 16:17 36.39550 25.47917 67 ft 25 kts 338°
2026-04-20 16:17 36.39710 25.47842 83 ft 25 kts 339°
2026-04-20 16:17 36.39871 25.47767 87 ft 25 kts 339°
2026-04-20 16:18 36.40034 25.47688 89 ft 26 kts 339°
2026-04-20 16:18 36.40203 25.47612 90 ft 21 kts 345°
2026-04-20 16:18 36.40272 25.47557 89 ft 11 kts 277°
2026-04-20 16:18 36.40266 25.47468 89 ft 7 kts 297°
2026-04-20 16:19 36.40305 25.47443 93 ft 6 kts 341°
2026-04-20 16:19 36.40310 25.47417 91 ft 3 kts 245°
2026-04-20 16:19 36.40307 25.47408 92 ft 0 kts 248°